Notices

What's New in latest Release from April 7th, 2021:

- Updated Glossary, including Speed of Maximum Gust, and Total Hourly Precipitation

- Updated national and regional climate services offices contacts and prices information

- Addition of station inventory lists for 1981-2010, 1971-2000, and 1961-1990 Normals.

If you haven't already, please take our survey and provide feedback about our website: https://eccc.sondage-survey.ca/f/LanguageSelection.aspx?s=442ca660-fcf1-47c0-95a9-59707d6fd709

Hourly Data Report for April 16, 2021

MIRAMICHI RCS
NEW BRUNSWICK
Current Station Operator: ECCC - MSC

47°00'34.000" N
65°27'54.000" W
33.00 m
8100989
71744
ACQ

Download Data

Hourly Data (April 2021)
Hourly Data Report for April 16, 2021
TIME
LST
Temp Definition
°C
Dew Point Definition
°C
Rel Hum Definition
%
Precip. Amount Definition
mm

Wind Dir Definition
10's deg

Wind Spd Definition
km/h
Visibility Definition
km
Stn Press Definition
kPa
Hmdx Definition


Wind Chill Definition


Weather Definition


00:00 0.7 -1.2 87 LegendMM 7 17   101.12     LegendNANA
01:00 0.9 -1.3 85 LegendMM 6 14   101.10     LegendNANA
02:00 1.0 -1.1 86 LegendMM 7 14   101.12     LegendNANA
03:00 1.0 -1.0 86 LegendMM 6 10   101.14     LegendNANA
04:00 0.9 -0.8 88 LegendMM 5 9   101.13     LegendNANA
05:00 0.7 -1.1 88 LegendMM 4 13   101.13     LegendNANA
06:00 0.6 -1.2 88 LegendMM 4 15   101.08     LegendNANA
07:00 0.9 -1.0 87 LegendMM 5 16   101.13     LegendNANA
08:00 1.6 -0.5 86 LegendMM 5 18   101.15     LegendNANA
09:00 2.5 -0.2 83 LegendMM 7 24   101.17     LegendNANA
10:00 3.9 0.3 78 LegendMM 7 26   101.17     LegendNANA
11:00 4.5 0.8 77 LegendMM 5 23   101.12     LegendNANA
12:00 3.6 0.3 79 LegendMM 6 25   101.10     LegendNANA
13:00 5.0 0.1 70 LegendMM 6 31   101.07     LegendNANA
14:00 3.7 0.0 77 LegendMM 6 31   101.04     LegendNANA
15:00 3.2 -0.6 76 LegendMM 6 32   100.99     LegendNANA
16:00 2.8 -0.3 80 LegendMM 7 33   100.97     LegendNANA
17:00 2.5 -0.4 81 LegendMM 7 33   101.00     LegendNANA
18:00 2.1 -0.6 82 LegendMM 7 32   101.03     LegendNANA
19:00 1.9 -0.6 83 LegendMM 6 33   101.04     LegendNANA
20:00 1.7 -0.8 84 LegendMM 6 27   101.10     LegendNANA
21:00 1.6 -0.8 84 LegendMM 6 27   101.06     LegendNANA
22:00 1.4 -1.2 83 LegendMM 6 27   101.03     LegendNANA
23:00 1.2 -1.3 83 LegendMM 7 29   100.97     LegendNANA

Notes on Data Quality.

Legend

  • E = Estimated
  • M = Missing
  • NA = Not Available*
  • [empty] = Indicates an unobserved value
Date modified: